Location: Oakhurst
(33.6448°N, 111.9543°W)
Time: 09:06:09
(UTC+00:00)

Envisat - Pass Details

Date: 23 May 2021
Orbit: 764 x 766 km, 98.1° (Epoch: 21 June)

Event Time Altitude Azimuth Distance (km) Brightness Sun altitude
Rises 11:32:17 0° 38° (NE) 3,233 7.8 -9.8°
Reaches altitude 10° 11:36:06 10° 67° (ENE) 2,301 7.1 -9.2°
Maximum altitude 11:38:10 12° 92° (E) 2,131 6.2 -8.8°
Drops below altitude 10° 11:40:15 10° 116° (ESE) 2,294 5.9 -8.5°
Sets 11:44:01 0° 146° (SE) 3,214 6.3 -7.8°
